Theta_e
321 322 323 321 321 323 323 324 325 322 321 320 321 319 317 320 319 317 319 319 323 328 325 327 328 334 334 333 332 332 331 328 324 322 316 319 319 318 319 319 319 319 319 320
322 322 320 319 321 323 325 325 326 324 317 320 318 319 318 320 321 321 319 319 319 325 327 327 327 333 334 333 333 332 330 330 325 322 314 314 316 317 318 319 319 320 320 323
321 320 319 320 322 324 324 327 327 328 315 317 319 319 320 320 321 322 323 322 323 320 325 327 327 328 330 331 332 331 328 325 322 317 314 314 318 320 320 319 319 320 323 325
319 318 320 320 322 322 325 324 324 321 323 326 318 323 320 321 321 320 320 321 321 320 319 325 325 327 328 325 330 331 330 327 325 319 316 315 316 316 316 317 319 321 323 325
321 318 319 321 321 321 322 322 320 321 320 322 323 323 320 318 320 320 322 322 321 320 318 319 324 323 323 325 323 329 330 330 329 327 321 317 317 317 318 318 319 322 325 325
318 317 318 320 319 319 316 319 319 319 321 326 323 324 322 321 321 319 320 324 324 322 319 318 318 319 321 324 325 324 329 331 331 330 328 325 320 319 319 319 320 323 325 326
319 319 316 319 319 318 320 323 324 325 326 324 319 322 324 318 317 317 319 319 323 324 322 320 318 318 320 322 324 324 326 330 331 331 330 329 327 324 322 321 321 322 325 326
320 320 318 317 321 320 322 322 318 320 321 318 312 320 319 319 320 320 321 321 319 318 318 321 321 320 317 320 323 324 326 327 330 331 330 330 330 329 327 327 327 327 327 326
319 319 315 317 316 319 320 323 315 313 302 312 314 314 314 314 315 314 314 314 317 317 316 316 319 319 317 317 319 321 322 322 323 323 326 329 329 329 328 328 328 328 327 327
315 318 315 313 317 316 319 317 321 314 315 318 316 315 316 314 315 313 312 314 315 314 313 313 313 316 316 317 318 320 322 322 322 323 325 325 326 326 327 328 327 326 325 325
314 316 314 314 319 320 319 320 318 318 315 317 316 315 311 312 315 313 310 312 312 313 313 311 311 311 312 313 313 315 316 317 318 321 324 326 327 327 327 327 326 326 327 327
314 314 316 319 310 312 317 319 320 321 319 315 314 315 310 309 309 308 309 310 311 310 312 313 313 312 312 312 311 310 309 310 311 313 318 320 324 326 328 328 328 330 328 328
312 314 316 314 314 312 318 318 319 315 313 317 316 315 308 306 306 309 310 311 311 312 312 313 313 311 311 311 311 311 311 310 309 309 309 311 314 319 324 327 327 327 327 327
312 313 316 319 318 316 319 319 319 314 314 314 318 314 307 307 307 307 310 311 311 313 314 313 311 311 311 310 310 310 310 311 309 309 309 309 309 309 311 315 321 323 324 325
312 313 312 313 314 315 316 317 319 318 316 317 317 314 308 307 306 308 311 311 314 314 313 313 311 311 311 310 310 310 310 309 309 309 309 309 309 308 309 310 313 313 316 323
311 314 310 308 312 315 316 316 318 318 318 317 314 314 312 310 312 310 312 313 314 313 312 311 311 310 310 309 309 309 309 310 309 309 309 309 309 309 309 310 311 313 313 314
313 310 310 307 309 311 312 316 317 317 317 317 316 315 310 310 310 312 314 313 312 312 312 311 311 310 309 309 308 308 308 308 308 308 308 309 309 309 309 309 309 310 310 310
313 311 309 311 313 317 312 312 315 316 316 315 315 311 310 311 314 314 314 313 312 312 311 311 310 309 308 308 308 308 308 308 308 308 308 308 309 308 309 309 309 309 309 310
312 309 310 313 314 308 309 307 313 315 315 314 315 312 310 312 312 312 313 313 312 312 311 310 309 308 307 308 307 307 307 307 307 307 308 308 308 308 308 308 308 308 310 311
311 311 311 307 313 312 309 307 311 311 314 313 313 313 311 311 312 310 311 311 311 309 307 307 307 307 307 307 307 307 307 307 307 307 307 307 307 307 308 307 307 308 310 310
312 311 314 312 305 305 305 304 311 313 312 310 312 312 312 311 312 312 312 310 308 306 307 307 307 307 308 308 307 307 307 307 307 307 307 307 307 307 307 307 306 306 307 308
313 313 312 302 299 311 304 308 312 309 308 309 310 312 311 311 312 312 309 307 306 307 307 307 306 307 307 307 306 307 307 307 306 306 307 307 306 306 306 306 306 306 306 305
310 311 311 312 310 305 305 309 312 309 309 308 310 312 312 312 310 308 305 305 306 306 305 305 305 305 305 304 304 305 304 305 305 305 305 306 306 305 305 305 304 304 304 304
306 305 306 307 306 304 306 307 309 309 309 309 310 310 311 310 307 305 305 304 304 304 304 303 303 303 304 304 304 304 304 304 304 304 304 304 304 303 303 302 302 302 302 302
304 304 302 302 304 303 305 308 309 309 308 308 308 310 310 310 305 305 304 303 303 303 303 303 303 303 303 303 302 302 302 302 303 303 303 303 303 302 302 302 301 301 300 299
301 306 307 306 304 305 306 309 309 308 308 308 308 307 307 307 306 304 303 302 302 302 302 302 302 301 301 300 300 300 299 298 297 297 297 297 296 297 298 299 299 300 300 298
Wind_Speed
8 7 14 11 11 5 8 6 10 6 7 6 16 6 11 24 15 16 17 19 26 33 24 20 27 29 34 32 32 29 31 34 37 36 32 30 30 27 26 25 23 22 20 20
4 17 12 8 6 7 6 8 9 3 3 6 5 10 9 15 17 25 26 25 20 31 30 25 25 32 37 36 36 33 32 34 36 37 35 33 31 28 26 25 25 24 22 18
20 15 15 12 9 14 10 7 8 5 2 3 2 6 7 11 24 29 34 35 31 27 32 32 29 32 34 38 38 37 34 34 35 35 36 35 32 31 30 30 29 27 25 21
17 8 22 16 18 13 15 6 4 7 7 5 5 5 5 6 10 15 25 31 29 31 29 33 32 33 33 36 40 39 36 35 35 35 37 38 38 38 36 34 32 30 29 26
18 24 22 21 23 17 6 8 5 3 3 1 3 1 6 7 5 10 23 36 35 33 33 33 35 34 33 32 39 42 40 39 38 37 37 38 40 39 37 35 34 32 31 29
2 20 13 18 11 12 8 7 6 3 2 6 8 6 5 6 9 7 14 26 36 38 37 36 36 36 36 33 32 38 41 43 41 40 39 40 41 41 39 38 36 34 33 31
5 7 11 25 9 8 9 13 2 4 4 9 6 8 13 7 9 7 6 9 19 30 33 35 37 38 38 37 35 34 39 43 43 43 42 42 42 42 41 40 39 37 36 35
13 8 15 10 21 12 22 15 5 7 5 5 1 8 6 17 29 22 17 14 10 14 12 24 33 35 37 39 37 36 35 39 43 43 44 44 43 44 43 42 41 40 38 36
13 6 4 4 7 14 8 14 6 5 2 2 5 6 9 7 9 10 14 11 13 11 9 11 15 32 33 33 34 34 35 36 40 43 44 46 45 45 45 44 43 42 40 39
7 6 2 2 9 1 12 12 7 1 5 5 5 4 5 7 11 8 9 13 10 9 7 5 6 11 24 27 27 28 32 35 37 40 43 45 46 46 46 45 45 45 42 41
13 6 3 6 10 19 7 12 4 5 5 5 3 6 7 11 15 9 5 11 14 12 10 5 4 5 12 17 21 24 27 30 33 36 38 42 46 47 47 48 47 46 44 43
5 6 10 13 4 4 7 11 11 8 8 3 2 5 3 7 8 19 15 17 16 18 19 9 7 3 2 2 4 11 21 27 29 31 34 37 40 43 45 46 47 46 43 42
9 5 9 3 5 4 18 12 19 3 3 10 5 5 0 4 12 21 25 21 19 15 8 1 4 1 1 4 6 7 8 9 14 23 29 32 35 38 41 42 42 40 40 40
12 7 16 20 33 10 19 23 20 4 5 4 15 4 4 7 11 14 20 19 15 10 4 2 2 1 2 5 7 10 9 9 9 11 14 19 25 29 32 36 35 35 37 38
7 7 8 4 7 16 22 19 21 19 14 11 16 13 15 13 11 21 21 18 13 8 6 6 4 3 5 8 10 12 11 10 10 11 13 13 15 19 22 25 30 33 31 35
4 8 5 2 12 18 24 26 26 29 27 23 4 13 7 18 21 21 23 20 13 9 8 7 5 8 11 10 11 11 10 11 13 12 12 14 14 15 14 16 19 22 24 26
15 7 5 2 7 10 5 31 32 30 24 30 19 17 9 8 9 22 24 19 12 10 9 8 11 15 14 13 11 9 10 12 13 12 12 13 12 12 12 13 16 19 21 23
16 8 3 4 11 9 7 21 29 29 29 29 21 8 11 15 23 19 19 15 14 11 11 15 16 14 13 12 11 10 8 8 10 10 9 10 11 12 13 14 14 16 19 21
11 7 5 6 10 4 7 8 29 22 30 25 27 15 13 18 16 8 16 14 11 10 12 12 12 12 10 9 8 8 7 7 8 8 9 11 12 12 13 12 13 14 15 15
4 6 7 4 7 12 4 7 29 7 18 25 26 21 17 18 9 6 15 11 9 8 9 9 9 8 7 5 4 5 5 5 5 6 7 9 11 12 13 14 14 14 12 12
9 6 11 8 3 8 7 6 34 13 12 22 40 41 33 16 18 17 17 14 13 11 10 10 10 8 6 4 2 1 1 1 2 3 5 7 8 10 12 12 12 12 12 13
11 11 6 3 3 12 11 23 25 4 7 18 28 37 32 27 20 23 23 20 18 16 14 12 10 10 10 8 7 5 3 5 6 6 6 6 7 8 9 11 13 13 13 12
3 10 10 14 8 4 18 20 32 17 16 13 23 30 31 30 31 32 29 24 21 19 17 15 12 12 10 8 6 5 6 7 7 8 9 9 9 9 9 9 9 9 10 11
3 4 5 4 6 5 19 15 18 15 14 17 18 25 30 34 34 32 28 26 25 22 19 16 13 11 9 7 6 6 7 8 9 8 9 10 10 10 10 10 10 10 11 12
4 7 6 1 2 6 13 23 20 16 16 20 22 25 31 32 32 32 30 27 25 23 20 16 13 11 9 8 6 6 6 7 6 8 9 11 12 13 14 14 14 13 11 11
4 3 7 5 10 5 20 36 33 21 23 24 25 25 26 28 33 32 31 27 25 22 20 18 15 14 12 10 8 8 9 9 10 10 11 12 13 14 14 15 15 14 13 12
Wind_Direction
201 181 203 206 203 190 162 196 204 232 231 162 223 217 237 256 239 230 218 221 212 215 230 223 210 206 212 219 224 224 215 213 213 217 223 222 224 225 227 230 232 235 237 239
150 216 194 152 211 233 220 199 221 269 153 173 237 245 234 241 240 236 228 224 224 217 219 220 217 209 217 222 223 229 221 216 217 221 225 227 229 231 235 237 237 238 241 241
196 205 160 189 192 211 231 236 204 206 203 315 357 277 232 240 238 239 236 238 240 227 219 217 219 222 223 218 222 228 227 223 220 222 223 227 229 233 235 234 237 238 241 242
216 176 179 193 205 191 206 194 191 148 148 223 185 277 287 236 242 233 232 229 230 228 222 219 223 227 228 226 223 229 233 231 229 227 226 227 229 230 234 236 238 240 242 243
199 180 184 197 201 189 208 145 124 107 110 17 243 249 264 244 250 240 232 235 231 230 223 224 227 238 239 233 227 227 231 233 234 234 233 233 234 237 241 242 242 242 244 245
130 189 177 197 187 177 151 95 60 56 88 243 207 199 240 219 239 240 225 235 237 233 230 232 234 238 242 238 234 229 230 234 236 238 238 240 240 240 241 243 243 243 244 245
148 193 177 179 142 151 145 158 146 209 216 239 220 201 245 234 231 210 217 228 232 233 235 236 236 233 237 240 239 237 233 234 237 240 242 242 246 245 248 250 250 250 249 246
154 187 178 174 190 174 180 173 152 179 205 222 304 229 251 225 239 243 252 242 217 208 238 240 241 240 236 240 240 239 239 238 238 241 245 247 248 249 251 252 253 253 256 257
170 201 151 187 134 159 178 197 144 105 40 98 210 276 307 261 231 218 217 212 228 231 249 252 247 238 240 240 242 243 242 243 242 243 244 246 249 249 252 254 254 256 258 259
162 112 184 139 122 58 183 161 167 117 154 237 253 248 227 219 238 224 222 218 240 238 203 200 233 230 230 237 244 248 249 249 250 248 247 248 250 252 253 254 255 257 259 259
150 118 191 165 202 186 165 192 188 130 162 177 178 253 218 204 211 200 160 156 147 149 169 155 128 198 229 239 242 245 248 251 252 252 252 251 251 253 255 255 257 258 260 260
182 124 161 189 5 267 194 190 189 188 210 214 179 271 291 210 155 143 143 140 141 140 135 114 57 111 174 292 277 256 247 247 248 250 252 252 253 254 255 257 258 257 258 258
171 144 136 125 3 335 203 189 199 95 85 209 144 244 306 127 120 150 144 146 146 154 165 353 360 19 317 342 338 319 301 291 272 260 255 251 250 250 251 253 252 255 257 256
130 168 180 190 203 136 190 199 199 153 189 170 223 169 218 180 150 163 154 159 168 180 195 273 95 346 315 335 339 333 315 293 291 280 269 262 258 256 254 254 254 255 256 257
135 163 175 114 152 173 181 180 189 210 203 201 223 204 200 191 172 175 175 179 181 204 223 207 234 289 301 310 308 314 303 296 290 283 276 272 261 257 256 253 252 259 254 253
219 165 123 85 173 167 183 194 195 211 209 228 121 223 194 188 176 177 179 185 201 201 197 209 244 290 296 292 295 298 287 278 279 281 279 273 270 266 259 255 255 258 259 258
182 135 121 194 151 111 185 200 197 211 205 217 215 216 187 201 176 178 187 191 187 198 211 240 277 287 287 289 282 280 275 277 275 272 274 270 265 264 264 263 263 265 265 264
163 125 93 146 126 186 235 188 209 208 208 215 220 167 181 186 198 197 196 193 198 213 244 266 271 269 270 272 273 277 268 260 261 261 263 270 268 264 265 268 272 273 274 274
174 130 116 161 193 288 261 204 194 191 223 215 217 194 189 194 195 207 197 194 216 231 245 251 249 251 251 249 254 255 251 254 254 252 250 246 248 251 257 265 271 275 278 286
82 159 123 144 158 213 173 187 192 156 254 214 214 208 203 193 221 199 193 197 209 225 216 221 218 218 217 215 221 231 239 253 271 281 282 277 272 269 269 272 279 280 279 282
156 156 177 169 189 275 234 162 140 159 245 175 197 207 204 200 220 197 192 189 186 181 178 177 175 171 158 145 135 173 89 354 350 328 308 297 284 267 259 259 262 269 276 282
165 155 170 110 175 250 174 146 174 168 154 206 200 200 197 196 189 189 180 175 169 168 161 155 159 151 138 133 123 109 87 56 31 5 351 344 322 310 300 289 280 277 276 275
189 189 171 193 187 196 183 176 186 193 180 182 193 193 194 182 172 169 166 168 167 166 164 159 157 142 133 122 109 82 59 40 22 8 358 356 351 346 334 318 304 295 291 288
256 169 153 121 222 193 157 181 185 182 185 173 172 173 183 169 168 167 167 166 166 164 162 161 154 141 128 112 91 67 55 43 31 23 20 16 12 11 9 2 354 343 328 314
192 138 151 242 337 102 177 188 186 180 172 158 155 165 171 172 167 170 167 166 164 163 160 156 152 142 131 116 102 88 75 58 45 39 37 34 32 30 27 24 19 10 357 344
346 190 186 208 183 166 192 192 197 187 173 168 164 161 168 179 173 171 166 165 164 163 159 156 150 148 144 137 125 109 96 87 73 61 55 53 45 39 39 36 32 25 15 5